• In Czech Republic
  • List of Countries
  • For 7 days
  • Water Temperature
  • Satellite Maps
  • Weather Map
  • Weather Widgets
  • user-avatar
    Login

    Hourly Weather Kerewan

    Today, 17 October, Wednesday

    Time Temperature Precipitation Wind Pressure Humidity
    00:00 +29°C° 0.1 mm 3 mps 758 mmHg 75%
    01:00 +29°C° 0.1 mm 3 mps 758 mmHg 75%
    02:00 +28°C° 0.1 mm 3 mps 758 mmHg 76%
    03:00 +28°C° 0 mm 3 mps 758 mmHg 76%
    04:00 +28°C° 0 mm 3 mps 758 mmHg 75%
    05:00 +28°C° 0 mm 3 mps 757 mmHg 75%
    06:00 +29°C° 0 mm 3 mps 758 mmHg 71%
    07:00 +30°C° 0 mm 3 mps 758 mmHg 67%
    08:00 +31°C° 0 mm 3 mps 758 mmHg 63%
    09:00 +34°C° 0 mm 3 mps 758 mmHg 56%
    10:00 +36°C° 0 mm 3 mps 758 mmHg 48%
    11:00 +38°C° 0 mm 3 mps 758 mmHg 40%
    12:00 +39°C° 0 mm 3 mps 757 mmHg 38%
    13:00 +40°C° 0 mm 3 mps 756 mmHg 35%
    14:00 +40°C° 0 mm 2 mps 755 mmHg 32%
    15:00 +39°C° 0 mm 2 mps 755 mmHg 37%
    16:00 +38°C° 0 mm 2 mps 755 mmHg 42%
    17:00 +37°C° 0 mm 2 mps 755 mmHg 47%
    18:00 +35°C° 0 mm 3 mps 755 mmHg 51%
    19:00 +34°C° 0 mm 3 mps 756 mmHg 55%
    20:00 +31°C° 0 mm 3 mps 757 mmHg 59%
    21:00 +31°C° 0 mm 3 mps 757 mmHg 59%
    22:00 +31°C° 0 mm 3 mps 757 mmHg 58%
    23:00 +30°C° 0 mm 3 mps 757 mmHg 58%

    Tomorrow, 18 October, Thursday

    Time Temperature Precipitation Wind Pressure Humidity
    00:00 +30°C° 0 mm 3 mps 756 mmHg 59%
    01:00 +29°C° 0 mm 3 mps 756 mmHg 60%
    02:00 +29°C° 0 mm 2 mps 756 mmHg 62%
    03:00 +28°C° 0 mm 2 mps 755 mmHg 64%
    04:00 +28°C° 0 mm 2 mps 755 mmHg 66%
    05:00 +28°C° 0 mm 2 mps 755 mmHg 68%
    06:00 +29°C° 0 mm 2 mps 756 mmHg 64%
    07:00 +30°C° 0 mm 2 mps 756 mmHg 61%
    08:00 +31°C° 0 mm 2 mps 756 mmHg 58%
    09:00 +34°C° 0 mm 3 mps 756 mmHg 49%
    10:00 +36°C° 0 mm 3 mps 756 mmHg 41%
    11:00 +38°C° 0 mm 3 mps 756 mmHg 33%
    12:00 +39°C° 0 mm 3 mps 755 mmHg 31%
    13:00 +40°C° 0 mm 3 mps 754 mmHg 29%
    14:00 +42°C° 0 mm 3 mps 753 mmHg 27%
    15:00 +39°C° 0 mm 3 mps 753 mmHg 33%
    16:00 +38°C° 0 mm 3 mps 753 mmHg 40%
    17:00 +36°C° 0 mm 4 mps 753 mmHg 47%
    18:00 +35°C° 0 mm 4 mps 753 mmHg 53%
    19:00 +33°C° 0 mm 4 mps 754 mmHg 59%
    20:00 +31°C° 0 mm 3 mps 755 mmHg 64%
    21:00 +30°C° 0 mm 3 mps 755 mmHg 66%
    22:00 +29°C° 0 mm 3 mps 755 mmHg 67%
    23:00 +29°C° 0 mm 2 mps 755 mmHg 69%

    Day after tomorrow, 19 October, Friday

    Time Temperature Precipitation Wind Pressure Humidity
    00:00 +28°C° 0 mm 2 mps 755 mmHg 71%
    01:00 +28°C° 0 mm 2 mps 755 mmHg 73%
    02:00 +28°C° 0 mm 2 mps 754 mmHg 75%
    03:00 +28°C° 0 mm 2 mps 754 mmHg 75%
    04:00 +28°C° 0 mm 2 mps 754 mmHg 74%
    05:00 +28°C° 0 mm 2 mps 754 mmHg 74%
    06:00 +28°C° 0 mm 1 mps 755 mmHg 71%
    07:00 +29°C° 0 mm 1 mps 756 mmHg 68%
    08:00 +30°C° 0 mm 1 mps 756 mmHg 64%
    09:00 +32°C° 0 mm 1 mps 756 mmHg 56%
    10:00 +34°C° 0 mm 1 mps 756 mmHg 48%
    11:00 +35°C° 0 mm 1 mps 756 mmHg 40%
    12:00 +36°C° 0 mm 1 mps 755 mmHg 38%
    13:00 +37°C° 0 mm 1 mps 754 mmHg 36%
    14:00 +39°C° 0 mm 2 mps 754 mmHg 34%
    15:00 +37°C° 0 mm 2 mps 754 mmHg 40%
    16:00 +36°C° 0 mm 2 mps 754 mmHg 46%
    17:00 +35°C° 0 mm 3 mps 754 mmHg 52%
    18:00 +34°C° 0 mm 3 mps 754 mmHg 58%
    19:00 +31°C° 0 mm 3 mps 755 mmHg 64%
    20:00 +30°C° 0 mm 3 mps 756 mmHg 69%
    21:00 +30°C° 0 mm 2 mps 756 mmHg 71%
    22:00 +29°C° 0 mm 2 mps 756 mmHg 74%
    23:00 +29°C° 0 mm 2 mps 756 mmHg 76%

    20 October, Saturday

    Time Temperature Precipitation Wind Pressure Humidity
    00:00 +29°C° 0 mm 2 mps 756 mmHg 77%
    01:00 +28°C° 0 mm 2 mps 755 mmHg 78%
    02:00 +28°C° 0 mm 2 mps 755 mmHg 80%
    03:00 +28°C° 0 mm 2 mps 755 mmHg 80%
    04:00 +28°C° 0 mm 2 mps 755 mmHg 81%
    05:00 +28°C° 0 mm 2 mps 755 mmHg 82%
    06:00 +29°C° 0 mm 2 mps 756 mmHg 78%
    07:00 +29°C° 0 mm 2 mps 756 mmHg 74%
    08:00 +30°C° 0 mm 2 mps 757 mmHg 70%
    09:00 +32°C° 0 mm 2 mps 757 mmHg 62%
    10:00 +35°C° 0 mm 2 mps 757 mmHg 55%
    11:00 +36°C° 0 mm 2 mps 756 mmHg 47%
    12:00 +37°C° 0 mm 2 mps 756 mmHg 45%
    13:00 +38°C° 0 mm 2 mps 755 mmHg 44%
    14:00 +38°C° 0 mm 2 mps 754 mmHg 42%
    15:00 +37°C° 0.3 mm 2 mps 754 mmHg 46%
    16:00 +36°C° 0.3 mm 3 mps 754 mmHg 51%
    17:00 +34°C° 0.3 mm 3 mps 754 mmHg 56%
    18:00 +33°C° 1.8 mm 3 mps 755 mmHg 64%
    19:00 +30°C° 1.8 mm 3 mps 756 mmHg 72%
    20:00 +28°C° 1.8 mm 3 mps 756 mmHg 79%
    21:00 +28°C° 0.4 mm 2 mps 756 mmHg 81%
    22:00 +28°C° 0.4 mm 2 mps 757 mmHg 82%
    23:00 +28°C° 0.4 mm 2 mps 757 mmHg 83%

    21 October, Sunday

    Time Temperature Precipitation Wind Pressure Humidity
    00:00 +28°C° 0.3 mm 2 mps 756 mmHg 83%
    01:00 +28°C° 0.3 mm 2 mps 756 mmHg 83%
    02:00 +27°C° 0.3 mm 2 mps 755 mmHg 83%
    03:00 +27°C° 0.1 mm 2 mps 755 mmHg 83%
    04:00 +27°C° 0.1 mm 2 mps 755 mmHg 83%
    05:00 +27°C° 0.1 mm 2 mps 755 mmHg 83%
    06:00 +28°C° 0 mm 3 mps 756 mmHg 78%
    07:00 +29°C° 0 mm 3 mps 756 mmHg 74%
    08:00 +30°C° 0 mm 4 mps 757 mmHg 70%
    09:00 +33°C° 0 mm 4 mps 756 mmHg 62%
    10:00 +34°C° 0 mm 4 mps 756 mmHg 55%
    11:00 +36°C° 0 mm 4 mps 756 mmHg 47%
    12:00 +37°C° 0 mm 4 mps 755 mmHg 44%
    13:00 +38°C° 0 mm 3 mps 755 mmHg 41%
    14:00 +39°C° 0 mm 3 mps 754 mmHg 37%
    15:00 +39°C° 0 mm 3 mps 754 mmHg 40%
    16:00 +38°C° 0 mm 2 mps 754 mmHg 42%
    17:00 +36°C° 0 mm 1 mps 754 mmHg 45%
    18:00 +36°C° 0 mm 2 mps 754 mmHg 48%
    19:00 +34°C° 0 mm 3 mps 754 mmHg 52%
    20:00 +33°C° 0 mm 3 mps 755 mmHg 55%
    21:00 +31°C° 0 mm 3 mps 755 mmHg 58%
    22:00 +30°C° 0 mm 3 mps 755 mmHg 61%
    23:00 +30°C° 0 mm 3 mps 755 mmHg 64%

    22 October, Monday

    Time Temperature Precipitation Wind Pressure Humidity
    00:00 +29°C° 0 mm 3 mps 755 mmHg 64%
    01:00 +29°C° 0 mm 3 mps 754 mmHg 65%
    02:00 +29°C° 0 mm 3 mps 754 mmHg 65%
    03:00 +29°C° 0 mm 3 mps 754 mmHg 65%
    04:00 +28°C° 0 mm 3 mps 754 mmHg 66%
    05:00 +28°C° 0 mm 4 mps 754 mmHg 66%
    06:00 +29°C° 0 mm 4 mps 754 mmHg 60%
    07:00 +30°C° 0 mm 5 mps 755 mmHg 55%
    08:00 +32°C° 0 mm 6 mps 755 mmHg 49%
    09:00 +34°C° 0 mm 6 mps 755 mmHg 43%
    10:00 +36°C° 0 mm 6 mps 755 mmHg 37%
    11:00 +39°C° 0 mm 6 mps 755 mmHg 31%
    12:00 +40°C° 0 mm 5 mps 754 mmHg 29%
    13:00 +41°C° 0 mm 5 mps 753 mmHg 27%
    14:00 +42°C° 0 mm 4 mps 752 mmHg 25%
    15:00 +40°C° 0 mm 3 mps 752 mmHg 28%
    16:00 +39°C° 0 mm 2 mps 753 mmHg 31%
    17:00 +37°C° 0 mm 1 mps 753 mmHg 34%
    18:00 +37°C° 0 mm 2 mps 753 mmHg 36%
    19:00 +35°C° 0 mm 2 mps 754 mmHg 39%
    20:00 +32°C° 0 mm 2 mps 754 mmHg 41%
    21:00 +32°C° 0 mm 2 mps 754 mmHg 44%
    22:00 +31°C° 0 mm 2 mps 754 mmHg 46%
    23:00 +31°C° 0 mm 2 mps 755 mmHg 49%
    Show more